WZZ4848 LHBP-LFPO

Flight info

Callsign WZZ4848
Flight time 2h 3m
Altitude 34000
Route GILEP DCT ZOLKU DCT ABETI DCT BARUG DCT SBG DCT TRAUN DCT RAVED Y112 HOC/N0440F350 DCT MOROK DCT PENDU DCT JAVVU DCT DJL
Aircraft A21N/M-SDE1E2E3FGIJ1J4RWXY/LB1

Departure

Time 2026-05-06 09:46
Airport Budapest Liszt Ferenc International Airport (LHBP)

Arrival

Time 2026-05-06 11:49
Airport Paris-Orly Airport (LFPO)
Time Latitude Longitude Altitude Speed Heading
2026-05-06 08:59 47.43478 19.26532 462 ft 0 kts 222°
2026-05-06 09:33 47.43481 19.26536 463 ft 3 kts 222°
2026-05-06 09:34 47.43495 19.26554 462 ft 3 kts 226°
2026-05-06 09:34 47.43505 19.26577 462 ft 3 kts 264°
2026-05-06 09:34 47.43502 19.26604 458 ft 3 kts 296°
2026-05-06 09:34 47.43491 19.26630 460 ft 3 kts 309°
2026-05-06 09:35 47.43478 19.26653 458 ft 3 kts 313°
2026-05-06 09:35 47.43474 19.26660 458 ft 0 kts 312°
2026-05-06 09:38 47.43476 19.26657 458 ft 1 kts 312°
2026-05-06 09:38 47.43484 19.26642 460 ft 3 kts 312°
2026-05-06 09:38 47.43500 19.26616 459 ft 4 kts 312°
2026-05-06 09:39 47.43521 19.26584 459 ft 2 kts 312°
2026-05-06 09:39 47.43535 19.26561 463 ft 4 kts 312°
2026-05-06 09:39 47.43556 19.26527 461 ft 5 kts 312°
2026-05-06 09:39 47.43584 19.26482 463 ft 7 kts 312°
2026-05-06 09:40 47.43619 19.26425 463 ft 8 kts 312°
2026-05-06 09:40 47.43662 19.26357 463 ft 10 kts 321°
2026-05-06 09:40 47.43798 19.26404 462 ft 13 kts 316°
2026-05-06 09:41 47.43861 19.26300 463 ft 14 kts 312°
2026-05-06 09:41 47.43932 19.26187 463 ft 16 kts 312°
2026-05-06 09:41 47.44008 19.26064 463 ft 17 kts 312°
2026-05-06 09:41 47.44091 19.25932 462 ft 18 kts 312°
2026-05-06 09:42 47.44178 19.25791 462 ft 19 kts 312°
2026-05-06 09:42 47.44270 19.25643 464 ft 20 kts 312°
2026-05-06 09:42 47.44361 19.25556 464 ft 14 kts 355°
2026-05-06 09:42 47.44460 19.25594 468 ft 16 kts 39°
2026-05-06 09:43 47.44510 19.25749 475 ft 18 kts 92°
2026-05-06 09:43 47.44481 19.25863 477 ft 0 kts 133°
2026-05-06 09:45 47.44475 19.25873 481 ft 11 kts 133°
2026-05-06 09:45 47.44255 19.26221 479 ft 85 kts 130°
2026-05-06 09:45 47.43696 19.27125 479 ft 150 kts 133°
2026-05-06 09:46 47.42921 19.28387 718 ft 171 kts 137°
2026-05-06 09:46 47.42107 19.29682 1279 ft 173 kts 137°
2026-05-06 09:46 47.41442 19.31214 1839 ft 189 kts 116°
2026-05-06 09:46 47.40859 19.33018 2369 ft 200 kts 123°
2026-05-06 09:47 47.40154 19.34868 2944 ft 214 kts 124°
2026-05-06 09:47 47.39404 19.36834 3504 ft 225 kts 123°
2026-05-06 09:47 47.38604 19.38934 3976 ft 245 kts 124°
2026-05-06 09:47 47.37512 19.40912 4439 ft 255 kts 149°
2026-05-06 09:48 47.35898 19.41890 5046 ft 256 kts 177°
2026-05-06 09:48 47.34151 19.41649 5827 ft 254 kts 202°
2026-05-06 09:48 47.32677 19.40272 6634 ft 253 kts 227°
2026-05-06 09:48 47.31709 19.38111 7418 ft 256 kts 242°
2026-05-06 09:49 47.30929 19.35725 8166 ft 261 kts 243°
2026-05-06 09:49 47.30134 19.33298 8949 ft 265 kts 243°
2026-05-06 09:49 47.29310 19.30852 9760 ft 268 kts 242°
2026-05-06 09:49 47.28454 19.28355 10289 ft 281 kts 242°
2026-05-06 09:50 47.27539 19.25716 10613 ft 299 kts 242°
2026-05-06 09:50 47.26566 19.22940 11105 ft 310 kts 242°
2026-05-06 09:50 47.25566 19.20104 11756 ft 314 kts 242°
2026-05-06 09:50 47.24551 19.17226 12457 ft 319 kts 242°
2026-05-06 09:51 47.23520 19.14312 13152 ft 323 kts 243°
2026-05-06 09:51 47.22477 19.11368 13860 ft 327 kts 243°
2026-05-06 09:51 47.21426 19.08384 14482 ft 331 kts 243°
2026-05-06 09:51 47.20665 19.05136 15120 ft 335 kts 260°
2026-05-06 09:52 47.20639 19.01744 15728 ft 340 kts 277°
2026-05-06 09:52 47.21363 18.98402 16337 ft 347 kts 294°
2026-05-06 09:52 47.22538 18.95271 16966 ft 352 kts 297°
2026-05-06 09:52 47.23792 18.92098 17612 ft 356 kts 297°
2026-05-06 09:53 47.25026 18.88921 18231 ft 359 kts 297°
2026-05-06 09:53 47.26252 18.85693 18754 ft 363 kts 296°
2026-05-06 09:53 47.27464 18.82469 19286 ft 366 kts 296°
2026-05-06 09:53 47.28292 18.80250 19655 ft 368 kts 296°
2026-05-06 09:54 47.29928 18.75850 20361 ft 372 kts 296°
2026-05-06 09:54 47.31172 18.72494 20893 ft 375 kts 296°
2026-05-06 09:54 47.32427 18.69116 21413 ft 377 kts 296°
2026-05-06 09:54 47.33689 18.65714 21947 ft 380 kts 296°
2026-05-06 09:55 47.34959 18.62286 22449 ft 383 kts 296°
2026-05-06 09:55 47.35823 18.59950 22796 ft 385 kts 296°
2026-05-06 09:55 47.37107 18.56478 23296 ft 387 kts 295°
2026-05-06 09:55 47.38400 18.52973 23776 ft 389 kts 296°
2026-05-06 09:56 47.39693 18.49465 24196 ft 391 kts 295°
2026-05-06 09:56 47.40994 18.45925 24616 ft 393 kts 295°
2026-05-06 09:56 47.42295 18.42373 25034 ft 395 kts 295°
2026-05-06 09:56 47.43608 18.38800 25447 ft 397 kts 295°
2026-05-06 09:57 47.44925 18.35206 25842 ft 399 kts 295°
2026-05-06 09:57 47.46244 18.31587 26228 ft 401 kts 295°
2026-05-06 09:57 47.47560 18.27942 26607 ft 402 kts 294°
2026-05-06 09:57 47.48614 18.24129 26979 ft 401 kts 284°
2026-05-06 09:58 47.49324 18.20137 27367 ft 402 kts 281°
2026-05-06 09:58 47.49975 18.16102 27742 ft 404 kts 281°
2026-05-06 09:58 47.50619 18.12102 28100 ft 406 kts 281°
2026-05-06 09:58 47.51278 18.08033 28467 ft 408 kts 281°
2026-05-06 09:59 47.51946 18.03946 28801 ft 410 kts 281°
2026-05-06 09:59 47.52623 17.99837 29130 ft 412 kts 281°
2026-05-06 09:59 47.53300 17.95713 29455 ft 414 kts 281°
2026-05-06 09:59 47.53976 17.91567 29774 ft 416 kts 281°
2026-05-06 10:00 47.54653 17.87392 30066 ft 418 kts 281°
2026-05-06 10:00 47.55328 17.83213 30337 ft 419 kts 281°
2026-05-06 10:00 47.56010 17.79002 30654 ft 420 kts 280°
2026-05-06 10:00 47.56667 17.74794 30976 ft 419 kts 280°
2026-05-06 10:01 47.57312 17.70584 31313 ft 418 kts 280°
2026-05-06 10:01 47.57952 17.66401 31678 ft 416 kts 280°
2026-05-06 10:01 47.58592 17.62236 32043 ft 414 kts 280°
2026-05-06 10:01 47.59228 17.58089 32383 ft 412 kts 280°
2026-05-06 10:02 47.59859 17.53962 32722 ft 411 kts 280°
2026-05-06 10:02 47.60488 17.49834 33010 ft 410 kts 280°
2026-05-06 10:02 47.61114 17.45720 33284 ft 409 kts 280°
2026-05-06 10:02 47.61737 17.41618 33584 ft 406 kts 280°
2026-05-06 10:03 47.62348 17.37574 33860 ft 398 kts 280°
2026-05-06 10:03 47.62950 17.33586 33912 ft 396 kts 280°
2026-05-06 10:03 47.64143 17.25635 33897 ft 394 kts 280°
2026-05-06 10:04 47.65332 17.17702 33880 ft 395 kts 280°
2026-05-06 10:04 47.66516 17.09754 33873 ft 395 kts 280°
2026-05-06 10:05 47.67693 17.01807 33880 ft 394 kts 279°
2026-05-06 10:05 47.68815 16.93889 33869 ft 391 kts 278°
2026-05-06 10:06 47.69905 16.85967 33865 ft 391 kts 278°
2026-05-06 10:06 47.70998 16.78055 33863 ft 391 kts 278°
2026-05-06 10:07 47.72077 16.70191 33851 ft 391 kts 278°
2026-05-06 10:07 47.73161 16.62270 33860 ft 391 kts 278°
2026-05-06 10:08 47.74238 16.54347 33844 ft 391 kts 278°
2026-05-06 10:08 47.75310 16.46419 33843 ft 391 kts 278°
2026-05-06 10:09 47.76373 16.38489 33846 ft 391 kts 278°
2026-05-06 10:09 47.77435 16.30555 33840 ft 391 kts 278°
2026-05-06 10:10 47.78491 16.22617 33837 ft 391 kts 278°
2026-05-06 10:10 47.79537 16.14711 33836 ft 388 kts 277°
2026-05-06 10:11 47.80573 16.06830 33829 ft 389 kts 277°
2026-05-06 10:11 47.81605 15.98938 33831 ft 388 kts 277°
2026-05-06 10:12 47.82630 15.91051 33835 ft 389 kts 277°
2026-05-06 10:12 47.83648 15.83169 33846 ft 388 kts 276°
2026-05-06 10:13 47.84660 15.75270 33839 ft 388 kts 276°
2026-05-06 10:13 47.85666 15.67374 33811 ft 388 kts 276°
2026-05-06 10:14 47.86676 15.59461 33822 ft 389 kts 276°
2026-05-06 10:14 47.87679 15.51531 33828 ft 390 kts 276°
2026-05-06 10:15 47.88674 15.43623 33826 ft 386 kts 276°
2026-05-06 10:15 47.89633 15.35735 33830 ft 387 kts 272°
2026-05-06 10:16 47.90107 15.27770 33818 ft 386 kts 270°
2026-05-06 10:16 47.90518 15.19792 33818 ft 386 kts 270°
2026-05-06 10:17 47.90928 15.11813 33818 ft 386 kts 270°
2026-05-06 10:17 47.91336 15.03836 33820 ft 386 kts 270°
2026-05-06 10:18 47.91739 14.95851 33862 ft 386 kts 269°
2026-05-06 10:18 47.92140 14.87870 33836 ft 386 kts 269°
2026-05-06 10:19 47.92533 14.79895 33822 ft 385 kts 269°
2026-05-06 10:19 47.92916 14.71935 33825 ft 385 kts 269°
2026-05-06 10:20 47.93296 14.63962 33832 ft 386 kts 269°
2026-05-06 10:20 47.93673 14.55976 33833 ft 386 kts 269°
2026-05-06 10:21 47.94045 14.47978 33836 ft 387 kts 268°
2026-05-06 10:21 47.94409 14.39956 33837 ft 388 kts 268°
2026-05-06 10:22 47.94768 14.31936 33818 ft 387 kts 268°
2026-05-06 10:22 47.95121 14.23930 33829 ft 387 kts 268°
2026-05-06 10:23 47.95470 14.15928 33826 ft 387 kts 268°
2026-05-06 10:23 47.95815 14.07891 33840 ft 390 kts 268°
2026-05-06 10:24 47.96154 13.99812 33828 ft 391 kts 268°
2026-05-06 10:24 47.96491 13.91720 33824 ft 391 kts 268°
2026-05-06 10:25 47.96821 13.83625 33817 ft 391 kts 268°
2026-05-06 10:25 47.97143 13.75531 33818 ft 391 kts 268°
2026-05-06 10:26 47.97462 13.67483 33831 ft 391 kts 267°
2026-05-06 10:26 47.97775 13.59370 33813 ft 391 kts 267°
2026-05-06 10:27 47.98079 13.51218 33807 ft 392 kts 267°
2026-05-06 10:27 47.98378 13.43094 33806 ft 392 kts 267°
2026-05-06 10:28 47.98674 13.34989 33796 ft 392 kts 267°
2026-05-06 10:28 47.98973 13.26839 33799 ft 392 kts 267°
2026-05-06 10:29 47.99262 13.18697 33803 ft 393 kts 267°
2026-05-06 10:29 47.99541 13.10600 33796 ft 394 kts 267°
2026-05-06 10:30 47.99816 13.02446 33797 ft 393 kts 267°
2026-05-06 10:30 48.00086 12.94295 33788 ft 392 kts 267°
2026-05-06 10:31 48.00002 12.86207 33790 ft 387 kts 258°
2026-05-06 10:31 47.99651 12.82229 33306 ft 385 kts 260°
2026-05-06 10:31 47.99286 12.78318 33231 ft 383 kts 262°
2026-05-06 10:32 47.98917 12.74359 32911 ft 388 kts 261°
2026-05-06 10:32 47.98566 12.70394 33317 ft 381 kts 258°
2026-05-06 10:32 47.98200 12.66493 33615 ft 379 kts 258°
2026-05-06 10:32 47.97833 12.62598 33747 ft 381 kts 258°
2026-05-06 10:33 47.97171 12.54633 33815 ft 391 kts 260°
2026-05-06 10:33 47.96592 12.46554 33806 ft 392 kts 260°
2026-05-06 10:34 47.96006 12.38448 33800 ft 393 kts 260°
2026-05-06 10:34 47.95413 12.30355 33796 ft 393 kts 259°
2026-05-06 10:35 47.94914 12.23614 33791 ft 393 kts 259°
2026-05-06 10:35 47.94238 12.14564 33789 ft 393 kts 259°
2026-05-06 10:36 47.93625 12.06458 33790 ft 393 kts 259°
2026-05-06 10:36 47.93008 11.98354 33791 ft 393 kts 259°
2026-05-06 10:37 47.92387 11.90247 33791 ft 393 kts 259°
2026-05-06 10:37 47.91777 11.82371 33790 ft 393 kts 259°
2026-05-06 10:38 47.91142 11.74265 33789 ft 392 kts 259°
2026-05-06 10:38 47.90504 11.66189 33791 ft 392 kts 259°
2026-05-06 10:39 47.89862 11.58121 33791 ft 392 kts 259°
2026-05-06 10:39 47.89213 11.50067 33790 ft 391 kts 259°
2026-05-06 10:40 47.88561 11.42030 33798 ft 391 kts 258°
2026-05-06 10:40 47.87906 11.34023 33800 ft 390 kts 258°
2026-05-06 10:41 47.87244 11.26014 33798 ft 389 kts 258°
2026-05-06 10:41 47.86578 11.18020 33798 ft 389 kts 258°
2026-05-06 10:42 47.85908 11.10038 33796 ft 388 kts 258°
2026-05-06 10:42 47.85232 11.02066 33806 ft 388 kts 258°
2026-05-06 10:43 47.84551 10.94100 33811 ft 388 kts 258°
2026-05-06 10:44 47.83523 10.82185 33820 ft 387 kts 257°
2026-05-06 10:44 47.82829 10.74233 33821 ft 388 kts 257°
2026-05-06 10:45 47.82129 10.66275 33821 ft 388 kts 257°
2026-05-06 10:45 47.81423 10.58310 33813 ft 388 kts 257°
2026-05-06 10:46 47.80710 10.50342 33821 ft 389 kts 257°
2026-05-06 10:46 47.79989 10.42361 33822 ft 389 kts 257°
2026-05-06 10:47 47.79265 10.34400 33821 ft 389 kts 257°
2026-05-06 10:47 47.78534 10.26411 33818 ft 389 kts 257°
2026-05-06 10:48 47.77802 10.18444 33817 ft 389 kts 257°
2026-05-06 10:48 47.77062 10.10509 33813 ft 390 kts 257°
2026-05-06 10:49 47.76315 10.02517 33810 ft 391 kts 256°
2026-05-06 10:49 47.75560 9.94514 33804 ft 391 kts 256°
2026-05-06 10:50 47.74801 9.86528 33799 ft 390 kts 256°
2026-05-06 10:50 47.74036 9.78551 33800 ft 390 kts 256°
2026-05-06 10:51 47.73329 9.70491 33903 ft 392 kts 257°
2026-05-06 10:51 47.73016 9.66511 34135 ft 392 kts 258°
2026-05-06 10:51 47.72699 9.62478 34376 ft 391 kts 258°
2026-05-06 10:51 47.72379 9.58479 34591 ft 391 kts 258°
2026-05-06 10:52 47.72068 9.54634 34754 ft 392 kts 258°
2026-05-06 10:52 47.71843 9.51858 34857 ft 393 kts 258°
2026-05-06 10:52 47.71513 9.47808 34999 ft 394 kts 258°
2026-05-06 10:52 47.71183 9.43767 35115 ft 396 kts 258°
2026-05-06 10:53 47.70861 9.39838 35236 ft 397 kts 258°
2026-05-06 10:53 47.70521 9.35761 35371 ft 398 kts 258°
2026-05-06 10:53 47.70179 9.31682 35492 ft 399 kts 258°
2026-05-06 10:53 47.69857 9.27830 35608 ft 400 kts 258°
2026-05-06 10:54 47.69590 9.24625 35715 ft 401 kts 258°
2026-05-06 10:54 47.68896 9.16353 35815 ft 404 kts 258°
2026-05-06 10:55 47.68236 9.08548 35802 ft 404 kts 258°
2026-05-06 10:55 47.67601 9.01138 35801 ft 404 kts 258°
2026-05-06 10:56 47.66888 8.92847 35802 ft 404 kts 257°
2026-05-06 10:56 47.66166 8.84569 35808 ft 405 kts 257°
2026-05-06 10:57 47.65450 8.76384 35803 ft 396 kts 257°
2026-05-06 10:57 47.64741 8.68314 35808 ft 395 kts 257°
2026-05-06 10:58 47.64020 8.60231 35811 ft 395 kts 257°
2026-05-06 10:58 47.63295 8.52149 35810 ft 396 kts 257°
2026-05-06 10:59 47.62563 8.44109 35812 ft 396 kts 257°
2026-05-06 10:59 47.61822 8.36027 35812 ft 396 kts 257°
2026-05-06 11:00 47.61071 8.27882 35809 ft 396 kts 257°
2026-05-06 11:00 47.60329 8.19836 35813 ft 397 kts 257°
2026-05-06 11:01 47.59574 8.11778 35824 ft 397 kts 257°
2026-05-06 11:01 47.58810 8.03670 35829 ft 397 kts 257°
2026-05-06 11:02 47.58043 7.95558 35832 ft 398 kts 257°
2026-05-06 11:02 47.57265 7.87427 35834 ft 399 kts 257°
2026-05-06 11:03 47.56476 7.79236 35848 ft 399 kts 257°
2026-05-06 11:03 47.55689 7.71146 35849 ft 400 kts 257°
2026-05-06 11:04 47.54887 7.62952 35854 ft 400 kts 257°
2026-05-06 11:04 47.54086 7.54865 35856 ft 400 kts 257°
2026-05-06 11:05 47.53268 7.46731 35850 ft 400 kts 257°
2026-05-06 11:05 47.52451 7.38597 35854 ft 400 kts 257°
2026-05-06 11:06 47.51632 7.30445 35854 ft 401 kts 257°
2026-05-06 11:06 47.50812 7.22287 35853 ft 401 kts 257°
2026-05-06 11:07 47.49979 7.14122 35851 ft 402 kts 257°
2026-05-06 11:07 47.49138 7.05938 35846 ft 403 kts 257°
2026-05-06 11:08 47.48288 6.97750 35849 ft 403 kts 257°
2026-05-06 11:08 47.47428 6.89563 35853 ft 404 kts 256°
2026-05-06 11:09 47.46553 6.81355 35852 ft 404 kts 256°
2026-05-06 11:09 47.45683 6.73146 35850 ft 405 kts 257°
2026-05-06 11:10 47.44814 6.64904 35848 ft 406 kts 257°
2026-05-06 11:10 47.43936 6.56683 35849 ft 407 kts 256°
2026-05-06 11:11 47.43033 6.48429 35845 ft 408 kts 256°
2026-05-06 11:11 47.42135 6.40154 35852 ft 409 kts 256°
2026-05-06 11:12 47.41223 6.31869 35850 ft 409 kts 256°
2026-05-06 11:12 47.40301 6.23596 35864 ft 409 kts 256°
2026-05-06 11:13 47.39372 6.15289 35852 ft 410 kts 256°
2026-05-06 11:13 47.38439 6.06995 35859 ft 410 kts 256°
2026-05-06 11:14 47.37505 5.98698 35864 ft 410 kts 256°
2026-05-06 11:14 47.36562 5.90348 35866 ft 413 kts 256°
2026-05-06 11:15 47.35602 5.81979 35886 ft 414 kts 256°
2026-05-06 11:15 47.34645 5.73610 35878 ft 414 kts 256°
2026-05-06 11:16 47.33677 5.65248 35876 ft 414 kts 256°
2026-05-06 11:16 47.33288 5.56753 35869 ft 424 kts 274°
2026-05-06 11:16 47.34088 5.52536 35865 ft 433 kts 289°
2026-05-06 11:17 47.35521 5.48595 35879 ft 438 kts 296°
2026-05-06 11:17 47.38706 5.40917 35872 ft 439 kts 296°
2026-05-06 11:18 47.41842 5.33201 35858 ft 439 kts 296°
2026-05-06 11:18 47.44957 5.25442 35855 ft 439 kts 296°
2026-05-06 11:19 47.48031 5.17717 35848 ft 439 kts 296°
2026-05-06 11:19 47.51111 5.09933 35846 ft 439 kts 296°
2026-05-06 11:20 47.54195 5.02119 35847 ft 440 kts 296°
2026-05-06 11:20 47.57273 4.94305 35841 ft 440 kts 296°
2026-05-06 11:21 47.60349 4.86466 35842 ft 440 kts 296°
2026-05-06 11:21 47.63422 4.78613 35845 ft 440 kts 296°
2026-05-06 11:22 47.66492 4.70753 35847 ft 441 kts 296°
2026-05-06 11:22 47.69560 4.62861 35850 ft 441 kts 296°
2026-05-06 11:23 47.72614 4.54952 35860 ft 442 kts 296°
2026-05-06 11:23 47.75674 4.47030 35858 ft 443 kts 296°
2026-05-06 11:24 47.78739 4.39089 35867 ft 443 kts 296°
2026-05-06 11:24 47.81783 4.31136 35851 ft 443 kts 296°
2026-05-06 11:25 47.84850 4.23177 35872 ft 443 kts 297°
2026-05-06 11:25 47.87870 4.15181 35870 ft 442 kts 294°
2026-05-06 11:25 47.88925 4.10928 35868 ft 436 kts 279°
2026-05-06 11:26 47.89547 4.06500 35862 ft 436 kts 278°
2026-05-06 11:26 47.90753 3.97641 35871 ft 437 kts 279°
2026-05-06 11:27 47.92025 3.88783 35879 ft 437 kts 279°
2026-05-06 11:27 47.93295 3.79917 35881 ft 437 kts 279°
2026-05-06 11:28 47.94553 3.71050 35881 ft 437 kts 279°
2026-05-06 11:28 47.95818 3.62191 35882 ft 437 kts 279°
2026-05-06 11:29 47.97684 3.53576 35349 ft 437 kts 291°
2026-05-06 11:29 47.98939 3.49432 34582 ft 439 kts 292°
2026-05-06 11:29 48.00227 3.45298 33757 ft 441 kts 295°
2026-05-06 11:29 48.01923 3.41441 32833 ft 450 kts 308°
2026-05-06 11:30 48.04184 3.38162 31863 ft 457 kts 321°
2026-05-06 11:30 48.06870 3.35551 30849 ft 463 kts 330°
2026-05-06 11:30 48.09825 3.33561 29779 ft 469 kts 339°
2026-05-06 11:30 48.12927 3.32048 28893 ft 469 kts 347°
2026-05-06 11:31 48.16143 3.31391 28031 ft 467 kts 357°
2026-05-06 11:31 48.19398 3.31284 27088 ft 467 kts
2026-05-06 11:31 48.22628 3.31340 26321 ft 461 kts
2026-05-06 11:31 48.25832 3.31435 25324 ft 460 kts
2026-05-06 11:32 48.29030 3.31548 24106 ft 461 kts
2026-05-06 11:32 48.32200 3.31670 22914 ft 461 kts
2026-05-06 11:32 48.35424 3.31804 21833 ft 456 kts
2026-05-06 11:32 48.38575 3.31942 20838 ft 450 kts
2026-05-06 11:33 48.41649 3.32082 19864 ft 444 kts
2026-05-06 11:33 48.44747 3.32231 18735 ft 436 kts
2026-05-06 11:33 48.47749 3.32063 17524 ft 429 kts 351°
2026-05-06 11:33 48.50558 3.30907 16353 ft 422 kts 336°
2026-05-06 11:34 48.53100 3.28711 15346 ft 410 kts 321°
2026-05-06 11:34 48.55053 3.25692 14650 ft 395 kts 304°
2026-05-06 11:34 48.56257 3.22144 14321 ft 379 kts 287°
2026-05-06 11:34 48.56653 3.18326 14071 ft 361 kts 268°
2026-05-06 11:35 48.56275 3.14670 13888 ft 345 kts 255°
2026-05-06 11:35 48.55464 3.11359 13707 ft 330 kts 244°
2026-05-06 11:35 48.54469 3.08313 13540 ft 316 kts 242°
2026-05-06 11:35 48.53478 3.05426 13357 ft 304 kts 242°
2026-05-06 11:36 48.52511 3.02632 13000 ft 298 kts 242°
2026-05-06 11:36 48.51554 2.99877 12568 ft 296 kts 242°
2026-05-06 11:36 48.50906 2.98024 12275 ft 295 kts 242°
2026-05-06 11:36 48.49961 2.95285 11858 ft 294 kts 243°
2026-05-06 11:37 48.49084 2.92519 11444 ft 292 kts 244°
2026-05-06 11:37 48.48224 2.89758 11029 ft 291 kts 245°
2026-05-06 11:37 48.47364 2.87013 10600 ft 289 kts 244°
2026-05-06 11:37 48.46503 2.84282 10168 ft 286 kts 245°
2026-05-06 11:38 48.45753 2.81520 9703 ft 285 kts 256°
2026-05-06 11:38 48.45567 2.78565 9246 ft 283 kts 272°
2026-05-06 11:38 48.45656 2.75621 8803 ft 281 kts 274°
2026-05-06 11:38 48.45838 2.72737 8353 ft 278 kts 276°
2026-05-06 11:39 48.46043 2.69839 7935 ft 279 kts 277°
2026-05-06 11:39 48.46243 2.66951 7632 ft 276 kts 277°
2026-05-06 11:39 48.46439 2.64072 7363 ft 276 kts 277°
2026-05-06 11:39 48.46637 2.61168 7108 ft 275 kts 277°
2026-05-06 11:40 48.46826 2.58302 6863 ft 274 kts 277°
2026-05-06 11:40 48.47019 2.55449 6611 ft 273 kts 279°
2026-05-06 11:40 48.47326 2.52640 6360 ft 272 kts 282°
2026-05-06 11:40 48.47800 2.49902 6118 ft 269 kts 290°
2026-05-06 11:41 48.48412 2.47257 5877 ft 267 kts 291°
2026-05-06 11:41 48.49039 2.44622 5632 ft 267 kts 291°
2026-05-06 11:41 48.49669 2.41991 5456 ft 266 kts 292°
2026-05-06 11:41 48.50262 2.39501 5322 ft 265 kts 291°
2026-05-06 11:42 48.50882 2.36882 5194 ft 265 kts 291°
2026-05-06 11:42 48.51495 2.34269 5070 ft 264 kts 291°
2026-05-06 11:42 48.52105 2.31651 4942 ft 264 kts 292°
2026-05-06 11:42 48.52713 2.29044 4825 ft 263 kts 292°
2026-05-06 11:43 48.53319 2.26445 4691 ft 260 kts 291°
2026-05-06 11:43 48.53901 2.23933 4560 ft 248 kts 291°
2026-05-06 11:43 48.54451 2.21538 4426 ft 236 kts 292°
2026-05-06 11:44 48.55731 2.17201 4147 ft 222 kts 318°
2026-05-06 11:44 48.57011 2.16049 4007 ft 216 kts 345°
2026-05-06 11:44 48.58440 2.15595 3868 ft 204 kts 351°
2026-05-06 11:44 48.59814 2.15332 3637 ft 195 kts 359°
2026-05-06 11:45 48.61165 2.15349 3394 ft 193 kts
2026-05-06 11:45 48.62498 2.15403 3145 ft 191 kts
2026-05-06 11:45 48.63822 2.15457 2982 ft 187 kts
2026-05-06 11:45 48.65053 2.15503 3001 ft 171 kts
2026-05-06 11:46 48.66139 2.16144 2695 ft 167 kts 41°
2026-05-06 11:46 48.66869 2.17461 2451 ft 160 kts 59°
2026-05-06 11:46 48.67417 2.18862 2228 ft 150 kts 65°
2026-05-06 11:46 48.67936 2.20265 2045 ft 154 kts 57°
2026-05-06 11:47 48.68439 2.21662 1866 ft 149 kts 58°
2026-05-06 11:47 48.68927 2.23032 1679 ft 148 kts 58°
2026-05-06 11:47 48.69412 2.24398 1463 ft 147 kts 58°
2026-05-06 11:47 48.69898 2.25772 1265 ft 149 kts 58°
2026-05-06 11:48 48.70387 2.27158 1059 ft 149 kts 58°
2026-05-06 11:48 48.70868 2.28532 850 ft 147 kts 58°
2026-05-06 11:48 48.71357 2.29888 646 ft 147 kts 58°
2026-05-06 11:48 48.71840 2.31251 460 ft 147 kts 59°
2026-05-06 11:49 48.72322 2.32604 302 ft 142 kts 59°
2026-05-06 11:49 48.72711 2.33707 301 ft 89 kts 61°
2026-05-06 11:49 48.72927 2.34314 296 ft 49 kts 64°
2026-05-06 11:49 48.73014 2.34787 297 ft 39 kts 81°
2026-05-06 11:50 48.73042 2.35053 298 ft 16 kts 82°
2026-05-06 11:50 48.73034 2.35178 297 ft 13 kts 113°
2026-05-06 11:50 48.73011 2.35295 297 ft 8 kts 89°
2026-05-06 11:50 48.73029 2.35386 297 ft 10 kts 65°
2026-05-06 11:51 48.73070 2.35484 297 ft 12 kts 57°
2026-05-06 11:51 48.73096 2.35549 300 ft 7 kts 64°
2026-05-06 11:51 48.73077 2.35617 298 ft 7 kts 137°
2026-05-06 11:51 48.73077 2.35681 300 ft 6 kts 66°
2026-05-06 11:52 48.73082 2.35726 297 ft 1 kts 124°
2026-05-06 11:52 48.73072 2.35727 298 ft 3 kts 192°
2026-05-06 11:52 48.73048 2.35719 301 ft 5 kts 190°
2026-05-06 11:52 48.73009 2.35710 298 ft 6 kts 189°
2026-05-06 11:53 48.72993 2.35706 298 ft 0 kts 189°